Date String (YYYY-MM-DD hh:mm:ss) UTC,Instrument flags,absolute air pressure of the measurement (hPa),sample flow rate (lpm),inlet stack bypass flow (lpm),air temperature of the measurement (°C),ambient temperature measured by the external sensor (°C),aerosol sample conditioner tube jacket temperature (°C),OPC LED temperature (°C),internal box temperature (°C),relative humidity of the measurement (%),span deviation,mass concentration of particles derived from Lorenz-Mie calculation of OPC scattering (μg/m³),mass concentration of particles derived from Lorenz-Mie calculation of OPC scattering (μg/m³),mass concentration of particles derived from Lorenz-Mie calculation of OPC scattering (μg/m³)
DateTimeUTC,F1_M11,P_M11,Q1_M11,Q2_M11,T1_M11,T2_M11,T3_M11,T4_M11,T5_M11,U1_M11,ZSPAN_M11,X0_M11,X2_M11,X1_M11
2023-06-28 08:00:00,SystemResetWarning,0828.5,5.02,000.00,031.3,028.5,000.0,039.4,031.8,34.1,0003.4,0021.80,0009.83,0008.14
2023-06-28 08:01:00,SystemResetWarning,0828.5,4.99,000.00,031.3,028.3,000.0,039.4,031.9,34.1,0003.8,0021.37,0009.88,0008.14
2023-06-28 08:02:00,SystemResetWarning,0828.6,5.00,000.00,031.3,026.3,000.0,039.4,032.0,34.0,0003.9,0021.47,0009.90,0008.11
2023-06-28 08:03:00,SystemResetWarning,0828.6,5.01,000.00,031.3,025.1,000.0,039.3,031.9,34.0,0003.9,0021.43,0009.84,0008.10
2023-06-28 08:04:00,SystemResetWarning,0828.6,5.01,000.00,031.1,025.1,000.0,039.3,031.5,34.3,0003.7,0022.98,0009.86,0008.08
2023-06-28 08:05:00,SystemResetWarning,0828.6,5.00,000.00,031.0,025.5,000.0,039.3,031.4,34.6,0003.1,0022.84,0009.88,0008.09
2023-06-28 08:06:00,SystemResetWarning,0828.6,4.99,000.00,030.9,026.0,000.0,039.3,031.3,34.7,0002.4,0022.65,0009.92,0008.09
2023-06-28 08:07:00,SystemResetWarning,0828.6,5.01,000.00,030.9,026.4,000.0,039.3,031.4,34.8,0002.6,0023.56,0009.97,0008.11
2023-06-28 08:08:00,SystemResetWarning,0828.6,4.99,000.00,030.8,026.8,000.0,039.2,031.4,34.9,0002.9,0024.36,0009.99,0008.12
2023-06-28 08:09:00,SystemResetWarning,0828.6,4.99,000.00,030.8,027.1,000.0,039.2,031.4,34.9,0002.5,0024.32,0010.02,0008.15
2023-06-28 08:10:00,SystemResetWarning,0828.6,5.00,000.00,030.8,027.4,000.0,039.2,031.5,34.9,0002.3,0023.96,0010.09,0008.16
2023-06-28 08:11:00,SystemResetWarning,0828.6,5.01,000.00,030.7,027.7,000.0,039.2,031.5,35.0,0000.0,0023.35,0010.09,0008.17
2023-06-28 08:12:00,SystemResetWarning,0828.6,4.98,000.00,030.7,027.8,000.0,039.2,031.5,35.0,0000.0,0023.19,0010.08,0008.19
2023-06-28 08:13:00,SystemResetWarning,0828.7,5.03,000.00,030.9,028.0,000.0,039.2,031.7,34.8,0000.0,0022.81,0010.10,0008.21
2023-06-28 08:14:00,SystemResetWarning,0828.7,4.97,000.00,031.0,028.1,000.0,039.2,031.7,34.5,0000.0,0022.51,0010.14,0008.23
2023-06-28 08:15:00,SystemResetWarning,0828.7,5.02,000.00,031.1,028.3,000.0,039.2,031.8,34.3,0000.0,0021.68,0010.13,0008.23
2023-06-28 08:16:00,SystemResetWarning,0828.7,5.00,000.00,031.1,028.4,000.0,039.2,031.8,34.1,0000.0,0021.48,0010.13,0008.23
2023-06-28 08:17:00,SystemResetWarning,0828.7,4.99,000.00,031.1,028.4,000.0,039.2,031.8,34.0,0000.0,0021.91,0010.11,0008.26
2023-06-28 08:18:00,SystemResetWarning,0828.8,4.99,000.00,031.1,028.5,000.0,039.3,031.9,34.0,0000.0,0020.73,0010.11,0008.27
2023-06-28 08:19:00,SystemResetWarning,0828.8,5.00,000.00,031.2,028.6,000.0,039.3,031.9,34.0,0000.0,0019.97,0010.07,0008.28
2023-06-28 08:20:00,SystemResetWarning,0828.8,5.00,000.00,031.2,028.5,000.0,039.3,031.9,34.1,0002.5,0019.83,0010.01,0008.25
2023-06-28 08:21:00,SystemResetWarning,0828.8,4.99,000.00,031.2,026.8,000.0,039.3,032.0,34.1,0003.5,0019.88,0010.01,0008.24
2023-06-28 08:22:00,SystemResetWarning,0828.8,5.01,000.00,031.2,025.3,000.0,039.2,031.9,34.2,0003.1,0019.62,0010.00,0008.24
2023-06-28 08:23:00,SystemResetWarning,0828.8,5.01,000.00,031.1,025.1,000.0,039.2,031.7,34.3,0003.3,0019.74,0010.03,0008.22
2023-06-28 08:24:00,SystemResetWarning,0828.7,5.00,000.00,030.9,025.5,000.0,039.2,031.4,34.6,0002.7,0020.09,0010.01,0008.21
2023-06-28 08:25:00,SystemResetWarning,0828.7,5.00,000.00,030.8,025.9,000.0,039.2,031.4,34.7,0002.6,0019.49,0009.91,0008.20
2023-06-28 08:26:00,SystemResetWarning,0828.7,5.00,000.00,030.8,026.4,000.0,039.2,031.4,34.9,0002.4,0019.46,0009.85,0008.20
2023-06-28 08:27:00,SystemResetWarning,0828.8,5.00,000.00,030.7,026.8,000.0,039.2,031.4,34.8,0002.5,0019.13,0009.86,0008.19
2023-06-28 08:28:00,SystemResetWarning,0828.8,4.99,000.00,030.7,027.1,000.0,039.2,031.4,34.9,0002.4,0018.27,0009.84,0008.19
2023-06-28 08:29:00,SystemResetWarning,0828.7,5.00,000.00,030.7,027.4,000.0,039.2,031.5,35.1,0002.2,0019.09,0009.92,0008.17
2023-06-28 08:30:00,SystemResetWarning,0828.8,5.00,000.00,030.9,027.6,000.0,039.1,031.6,34.7,0001.9,0020.23,0010.01,0008.18
2023-06-28 08:31:00,SystemResetWarning,0828.8,4.99,000.00,031.0,027.8,000.0,039.1,031.7,34.4,0002.2,0019.83,0010.00,0008.21
2023-06-28 08:32:00,SystemResetWarning,0828.7,5.02,000.00,031.1,028.0,000.0,039.1,031.7,34.3,0002.3,0020.77,0009.98,0008.22
2023-06-28 08:33:00,SystemResetWarning,0828.8,4.99,000.00,031.1,028.1,000.0,039.2,031.8,34.2,0002.0,0021.69,0010.00,0008.24
2023-06-28 08:34:00,SystemResetWarning,0828.8,4.99,000.00,031.1,028.2,000.0,039.2,031.7,33.8,0001.7,0021.97,0009.98,0008.26
2023-06-28 08:35:00,SystemResetWarning,0828.8,5.00,000.00,031.1,028.3,000.0,039.2,031.8,33.8,0001.7,0022.03,0009.99,0008.28
2023-06-28 08:36:00,SystemResetWarning,0828.8,5.00,000.00,031.1,028.4,000.0,039.3,031.8,33.4,0001.6,0022.46,0010.09,0008.29
2023-06-28 08:37:00,SystemResetWarning,0828.8,5.00,000.00,031.2,028.5,000.0,039.3,031.9,33.3,0001.6,0022.82,0010.12,0008.29
2023-06-28 08:38:00,SystemResetWarning,0828.8,5.01,000.00,031.2,028.6,000.0,039.3,031.9,33.6,0001.3,0022.31,0010.08,0008.29
2023-06-28 08:39:00,SystemResetWarning,0828.9,5.01,000.00,031.2,028.6,000.0,039.4,031.9,33.6,0001.4,0023.81,0010.13,0008.30
2023-06-28 08:40:00,SystemResetWarning,0828.8,5.00,000.00,031.2,028.7,000.0,039.4,031.9,33.7,0001.4,0023.43,0010.09,0008.30
2023-06-28 08:41:00,SystemResetWarning,0828.8,4.99,000.00,031.2,028.4,000.0,039.4,032.0,33.2,0001.4,0022.60,0010.01,0008.27
2023-06-28 08:42:00,SystemResetWarning,0828.8,4.99,000.00,031.2,026.4,000.0,039.3,032.0,32.7,0001.1,0023.16,0010.01,0008.24
2023-06-28 08:43:00,SystemResetWarning,0828.8,5.00,000.00,031.2,025.3,000.0,039.3,031.9,32.3,0001.2,0022.00,0009.96,0008.22
2023-06-28 08:44:00,SystemResetWarning,0828.8,5.01,000.00,031.0,025.2,000.0,039.2,031.5,32.6,0001.9,0021.38,0009.96,0008.20
2023-06-28 08:45:00,SystemResetWarning,0828.7,5.02,000.00,030.9,025.6,000.0,039.2,031.4,32.8,0002.1,0021.55,0009.97,0008.18
2023-06-28 08:46:00,SystemResetWarning,0828.8,4.99,000.00,030.8,026.0,000.0,039.2,031.4,32.5,0002.4,0021.81,0010.00,0008.17
2023-06-28 08:47:00,SystemResetWarning,0828.8,5.00,000.00,030.8,026.5,000.0,039.2,031.4,32.7,0002.1,0022.24,0009.98,0008.14
2023-06-28 08:48:00,SystemResetWarning,0828.8,5.00,000.00,030.7,026.9,000.0,039.2,031.4,33.1,0002.0,0022.63,0009.94,0008.12
2023-06-28 08:49:00,SystemResetWarning,0828.8,5.00,000.00,030.7,027.2,000.0,039.2,031.5,33.1,0002.6,0023.19,0009.92,0008.10
2023-06-28 08:50:00,SystemResetWarning,0828.9,4.99,000.00,030.7,027.5,000.0,039.2,031.5,33.2,0002.7,0021.62,0009.88,0008.06
2023-06-28 08:51:00,SystemResetWarning,0828.9,4.99,000.00,030.7,027.7,000.0,039.1,031.5,33.2,0002.9,0021.24,0009.84,0008.04
2023-06-28 08:52:00,SystemResetWarning,0829.0,5.01,000.00,030.6,027.9,000.0,039.1,031.5,33.7,0002.9,0021.44,0009.88,0008.02
2023-06-28 08:53:00,SystemResetWarning,0829.0,5.01,000.00,030.6,028.0,000.0,039.1,031.6,33.8,0003.0,0022.41,0009.95,0008.02
2023-06-28 08:54:00,SystemResetWarning,0829.0,5.01,000.00,030.6,028.2,000.0,039.1,031.6,33.8,0002.8,0023.69,0009.97,0008.01
2023-06-28 08:55:00,SystemResetWarning,0828.9,5.00,000.00,030.6,028.3,000.0,039.1,031.6,33.4,0002.9,0023.74,0009.93,0007.99
2023-06-28 08:56:00,SystemResetWarning,0828.9,5.00,000.00,030.6,028.4,000.0,039.1,031.7,30.2,0003.0,0023.31,0009.91,0007.97
2023-06-28 08:57:00,SystemResetWarning,0828.9,5.00,000.00,030.6,028.4,000.0,039.1,031.7,26.4,0002.8,0022.70,0009.84,0007.93
2023-06-28 08:58:00,SystemResetWarning,0828.9,5.00,000.00,030.6,028.5,000.0,039.1,031.7,25.8,0002.9,0022.60,0009.83,0007.92
2023-06-28 08:59:00,SystemResetWarning,0829.0,5.00,000.00,030.6,028.5,000.0,039.1,031.7,27.6,0002.9,0021.78,0009.86,0007.93
